Weather History for Minden, LA

Change the Weather History Date:

Wednesday, October 3, 2012

  Actual Average (KBAD) Record (KBAD)
Temperature  
Mean Temperature 67 °F -  
Max Temperature 80 °F 77 °F 91 °F (2005)
Min Temperature 54 °F 57 °F 45 °F (2011)
Cooling Degree Days 2    
Growing Degree Days 17 (Base 50)    
Moisture  
Dew Point 56 °F    
Average Humidity 71    
Maximum Humidity 92    
Minimum Humidity 40    
Precipitation  
Precipitation 0.00 in - - ()
Sea Level Pressure  
Sea Level Pressure 30.03 in    
Wind  
Wind Speed 1 mph ()    
Max Wind Speed 6 mph    
Max Gust Speed -    
Visibility 9.9 miles    
Events      
Averages and records for this station are not official NWS values.
T = Trace of Precipitation, MM = Missing Value Source: Averaged Metar Reports

Daily Weather History Graph

Daily Weather History Graph

Search for Another Location

Airport:

Trip Planner

Search our weather history database for the weather conditions in past years. The results will help you decide how hot, cold, wet, or windy it might be!

Date:

Astronomy

Oct. 03, 2012 Rise Set
Actual Time 7:08 AM CDT 6:54 PM CDT
Civil Twilight 6:44 AM CDT 7:19 PM CDT
Nautical Twilight 6:15 AM CDT 7:47 PM CDT
Astronomical Twilight 5:47 AM CDT 8:16 PM CDT
Moon 9:00 PM CDT (10/3) 10:19 AM CDT (10/3)
Length of Visible Light 12h 34m
Length of Day
11h 45m
Waning Gibbous, 88% of the Moon is Illuminated
Oct 3
Waning Gibbous
Oct 8
Last Quarter
Oct 15
New
Oct 21
First Quarter
Oct 29
Full

Hourly Weather History & Observations

Time (CDT) Temp. Heat Index Dew Point Humidity Pressure Visibility Wind Dir Wind Speed Gust Speed Precip Events Conditions
12:15 AM 57.4 °F - 54.9 °F 91% 29.98 in 10.0 mi Calm Calm - N/A   Clear
12:35 AM 57.2 °F - 54.9 °F 92% 29.97 in 10.0 mi Calm Calm - N/A   Clear
12:55 AM 56.8 °F - 54.5 °F 92% 29.98 in 10.0 mi Calm Calm - N/A   Clear
1:15 AM 56.7 °F - 54.5 °F 92% 29.98 in 10.0 mi Calm Calm - N/A   Clear
1:35 AM 56.1 °F - 54.0 °F 92% 29.98 in 7.0 mi Calm Calm - N/A   Clear
1:55 AM 56.3 °F - 54.0 °F 92% 29.98 in 10.0 mi Calm Calm - N/A   Clear
2:15 AM 56.5 °F - 54.0 °F 91% 29.99 in 10.0 mi Calm Calm - N/A   Clear
2:35 AM 55.8 °F - 53.4 °F 92% 29.99 in 10.0 mi Calm Calm - N/A   Clear
4:15 AM 55.4 °F - 53.1 °F 92% 29.98 in 10.0 mi Calm Calm - N/A   Clear
4:35 AM 55.4 °F - 53.1 °F 92% 29.99 in 10.0 mi Calm Calm - N/A   Clear
4:55 AM 55.4 °F - 52.9 °F 91% 29.99 in 10.0 mi Calm Calm - N/A   Clear
5:15 AM 55.4 °F - 53.1 °F 92% 29.99 in 10.0 mi Calm Calm - N/A   Clear
5:35 AM 55.4 °F - 52.9 °F 91% 29.99 in 10.0 mi Calm Calm - N/A   Clear
5:55 AM 55.0 °F - 52.7 °F 92% 30.00 in 10.0 mi Calm Calm - N/A   Clear
6:15 AM 55.6 °F - 52.9 °F 91% 30.01 in 10.0 mi Calm Calm - N/A   Clear
6:35 AM 55.6 °F - 52.9 °F 91% 30.01 in 10.0 mi Calm Calm - N/A   Clear
6:55 AM 54.9 °F - 52.2 °F 91% 30.02 in 10.0 mi Calm Calm - N/A   Clear
7:15 AM 55.0 °F - 52.5 °F 91% 30.02 in 10.0 mi Calm Calm - N/A   Clear
7:35 AM 55.0 °F - 52.7 °F 92% 30.02 in 7.0 mi Calm Calm - N/A   Clear
7:55 AM 56.8 °F - 54.0 °F 90% 30.03 in 10.0 mi Calm Calm - N/A   Clear
8:15 AM 59.2 °F - 55.2 °F 87% 30.04 in 10.0 mi Calm Calm - N/A   Clear
8:35 AM 61.5 °F - 55.8 °F 81% 30.04 in 10.0 mi Calm Calm - N/A   Clear
8:55 AM 63.0 °F - 56.1 °F 78% 30.05 in 10.0 mi Calm Calm - N/A   Clear
9:15 AM 65.7 °F - 56.3 °F 72% 30.05 in 10.0 mi SE 3.5 mph - N/A   Clear
9:35 AM 68.0 °F - 57.0 °F 68% 30.06 in 10.0 mi SE 3.5 mph - N/A   Clear
9:55 AM 70.0 °F - 57.9 °F 65% 30.07 in 10.0 mi SE 5.8 mph - N/A   Clear
10:15 AM 71.1 °F - 58.1 °F 63% 30.07 in 10.0 mi SSE 5.8 mph - N/A   Clear
10:35 AM 72.1 °F - 58.3 °F 62% 30.07 in 10.0 mi SE 5.8 mph - N/A   Clear
10:55 AM 72.9 °F - 58.1 °F 60% 30.07 in 10.0 mi ESE 5.8 mph - N/A   Clear
11:15 AM 74.7 °F - 58.5 °F 57% 30.07 in 10.0 mi SE 5.8 mph - N/A   Clear
11:35 AM 75.9 °F - 58.6 °F 55% 30.07 in 10.0 mi ESE 4.6 mph - N/A   Clear
11:55 AM 76.6 °F - 57.2 °F 51% 30.07 in 10.0 mi Calm Calm - N/A   Clear
12:15 PM 76.6 °F - 55.2 °F 47% 30.07 in 10.0 mi Calm Calm - N/A   Clear
12:35 PM 77.4 °F - 55.9 °F 47% 30.07 in 10.0 mi Calm Calm - N/A   Clear
12:55 PM 77.9 °F - 56.1 °F 47% 30.05 in 10.0 mi SE 5.8 mph - N/A   Clear
1:15 PM 77.5 °F - 55.8 °F 47% 30.05 in 10.0 mi ENE 3.5 mph - N/A   Clear
1:35 PM 78.8 °F - 55.9 °F 45% 30.04 in 10.0 mi ESE 3.5 mph - N/A   Clear
1:55 PM 77.9 °F - 55.6 °F 46% 30.03 in 10.0 mi Calm Calm - N/A   Clear
2:15 PM 79.9 °F - 56.3 °F 44% 30.03 in 10.0 mi Calm Calm - N/A   Scattered Clouds
2:35 PM 80.2 °F 80.3 °F 55.0 °F 42% 30.02 in 10.0 mi SE 5.8 mph - N/A   Scattered Clouds
2:55 PM 80.1 °F 80.1 °F 55.0 °F 42% 30.02 in 10.0 mi South 3.5 mph - N/A   Scattered Clouds
3:15 PM 80.4 °F 80.3 °F 54.5 °F 41% 30.01 in 10.0 mi South 3.5 mph - N/A   Clear
3:35 PM 80.4 °F 80.3 °F 54.5 °F 41% 30.02 in 10.0 mi Calm Calm - N/A   Clear
3:55 PM 80.2 °F 80.1 °F 54.1 °F 40% 30.02 in 10.0 mi SSE 5.8 mph - N/A   Clear
4:15 PM 80.2 °F 80.1 °F 54.0 °F 40% 30.02 in 10.0 mi SSE 5.8 mph - N/A   Clear
4:35 PM 80.1 °F 80.1 °F 54.5 °F 41% 30.02 in 10.0 mi SE 5.8 mph - N/A   Clear
4:55 PM 79.9 °F - 54.5 °F 41% 30.02 in 10.0 mi South 3.5 mph - N/A   Clear
5:15 PM 79.7 °F - 54.3 °F 41% 30.02 in 10.0 mi South 3.5 mph - N/A   Clear
5:55 PM 77.9 °F - 55.6 °F 46% 30.02 in 10.0 mi Calm Calm - N/A   Clear
6:15 PM 76.1 °F - 55.4 °F 49% 30.03 in 10.0 mi SE 3.5 mph - N/A   Clear
6:35 PM 74.3 °F - 56.8 °F 54% 30.03 in 10.0 mi Calm Calm - N/A   Clear
6:55 PM 71.6 °F - 57.7 °F 62% 30.03 in 10.0 mi Calm Calm - N/A   Clear
7:15 PM 69.1 °F - 59.5 °F 72% 30.03 in 10.0 mi Calm Calm - N/A   Clear
7:35 PM 68.2 °F - 59.2 °F 73% 30.04 in 10.0 mi Calm Calm - N/A   Clear
8:15 PM 65.7 °F - 61.0 °F 85% 30.05 in 10.0 mi Calm Calm - N/A   Clear
8:35 PM 64.4 °F - 60.4 °F 87% 30.06 in 10.0 mi Calm Calm - N/A   Clear
8:55 PM 63.9 °F - 59.9 °F 87% 30.06 in 10.0 mi Calm Calm - N/A   Clear
9:35 PM 63.3 °F - 59.0 °F 86% 30.07 in 10.0 mi Calm Calm - N/A   Clear
9:55 PM 63.0 °F - 59.0 °F 87% 30.08 in 10.0 mi Calm Calm - N/A   Clear
10:15 PM 63.0 °F - 58.5 °F 85% 30.08 in 10.0 mi Calm Calm - N/A   Clear
10:35 PM 62.4 °F - 58.1 °F 86% 30.09 in 10.0 mi Calm Calm - N/A   Clear
10:55 PM 62.6 °F - 57.9 °F 85% 30.09 in 10.0 mi Calm Calm - N/A   Clear
11:15 PM 62.8 °F - 57.6 °F 83% 30.09 in 10.0 mi Calm Calm - N/A   Clear
11:35 PM 62.4 °F - 57.4 °F 84% 30.09 in 10.0 mi Calm Calm - N/A   Clear
11:55 PM 62.6 °F - 56.8 °F 81% 30.09 in 10.0 mi Calm Calm - N/A   Clear